Location: Eppenbrunn
(49.1158°N, 7.5601°E)
Time: 15:29:30
(UTC+00:00)

IGS 5A - Pass Details

Date: 12 August 2020
Orbit: 583 x 588 km, 97.6° (Epoch: 26 September)

Event Time Altitude Azimuth Distance (km) Brightness Sun altitude
Exits shadow 20:08:57 16° 148° (SSE) 1,564 5.0 -11.8°
Maximum altitude 20:12:08 58° 72° (ENE) 694 3.6 -12.2°
Drops below altitude 10° 20:16:15 10° 354° (N) 1,928 6.8 -12.7°
Sets 20:18:26 0° 351° (N) 2,833 7.8 -12.9°
